DW7673 Weather Reports


Display with metric or nautical units.
time (UTC)temp
F
wind
direction
speed
MPH
gust
MPH
rain 1hr
in
rain 24hr
in
rain mn
in
humidity
%
barometer
mb
20180819074804 91 262 0.0 1.0 0.00 0.00 0.00 35 1007.0
20180819074304 91 337 0.0 0.0 0.00 0.00 0.00 36 1006.9
20180819073804 91 337 0.0 0.0 0.00 0.00 0.00 39 1007.1
20180819073305 90 57 0.0 0.0 0.00 0.00 0.00 42 1006.9
20180819072804 91 57 0.0 0.0 0.00 0.00 0.00 43 1007.1
20180819072305 91 69 0.0 0.0 0.00 0.00 0.00 43 1007.0
20180819071803 91 77 0.0 1.0 0.00 0.00 0.00 43 1007.1
20180819071303 91 60 0.0 0.0 0.00 0.00 0.00 43 1007.3
20180819070823 91 60 0.0 0.0 0.00 0.00 0.00 42 1007.1
20180819070305 91 57 0.0 1.0 0.00 0.00 0.00 42 1007.3
20180819065804 91 43 0.0 1.0 0.00 0.00 0.00 43 1007.2
20180819065304 91 65 0.0 1.0 0.00 0.00 0.00 43 1007.3
20180819064805 91 59 0.0 0.0 0.00 0.00 0.00 43 1007.2
20180819064305 91 58 0.0 0.0 0.00 0.00 0.00 43 1007.1
20180819063804 91 65 0.0 0.0 0.00 0.00 0.00 42 1007.4
20180819063304 91 355 0.0 0.0 0.00 0.00 0.00 42 1007.0
20180819062804 91 345 0.0 0.0 0.00 0.00 0.00 41 1007.2
20180819062304 91 13 0.0 0.0 0.00 0.00 0.00 41 1007.0
20180819061804 92 13 0.0 0.0 0.00 0.00 0.00 40 1007.0
20180819061304 92 9 0.0 0.0 0.00 0.00 0.00 41 1007.3
20180819060804 92 9 0.0 0.0 0.00 0.00 0.00 40 1007.0
20180819055804 91 9 0.0 0.0 0.00 0.00 0.00 41 1007.2
20180819055304 92 9 0.0 0.0 0.00 0.00 0.00 41 1007.1
20180819054804 91 9 0.0 0.0 0.00 0.00 0.00 41 1007.4
20180819054304 91 9 0.0 0.0 0.00 0.00 0.00 41 1007.2
20180819053804 91 131 0.0 0.0 0.00 0.00 0.00 42 1007.4
20180819053304 91 131 0.0 0.0 0.00 0.00 0.00 42 1007.1
20180819052804 91 131 0.0 0.0 0.00 0.00 0.00 41 1007.3
20180819052304 92 131 0.0 0.0 0.00 0.00 0.00 41 1007.2
20180819051804 92 131 0.0 0.0 0.00 0.00 0.00 41 1007.5
20180819051304 92 131 0.0 0.0 0.00 0.00 0.00 40 1007.7
20180819050804 93 131 0.0 0.0 0.00 0.00 0.00 40 1007.7
20180819050304 93 131 0.0 0.0 0.00 0.00 0.00 40 1007.9
20180819045804 93 131 0.0 0.0 0.00 0.00 0.00 39 1007.9
20180819045307 94 131 0.0 0.0 0.00 0.00 0.00 38 1008.1
20180819044805 94 131 0.0 0.0 0.00 0.00 0.00 38 1007.8
20180819044304 95 131 0.0 0.0 0.00 0.00 0.00 37 1008.1
20180819043805 95 131 0.0 0.0 0.00 0.00 0.00 36 1007.9
20180819043305 96 131 0.0 0.0 0.00 0.00 0.00 35 1008.1
20180819042805 96 117 0.0 1.0 0.00 0.00 0.00 32 1007.9
20180819042305 97 210 0.0 1.0 0.00 0.00 0.00 28 1007.9
20180819041804 97 210 0.0 0.0 0.00 0.00 0.00 28 1007.7
20180819041305 98 210 0.0 0.0 0.00 0.00 0.00 28 1007.7
20180819040804 98 238 0.0 1.0 0.00 0.00 0.00 28 1007.7
20180819040304 98 256 1.0 2.0 0.00 0.00 0.00 28 1007.4
20180819035805 98 258 0.0 0.0 0.00 0.00 0.00 28 1007.7
20180819035304 99 259 0.0 0.0 0.00 0.00 0.00 27 1007.4
20180819034804 99 234 1.0 3.0 0.00 0.00 0.00 27 1007.5
20180819034304 99 274 0.0 1.0 0.00 0.00 0.00 27 1007.3
20180819033804 99 266 1.0 3.0 0.00 0.00 0.00 27 1007.4
20180819033304 99 274 0.0 3.0 0.00 0.00 0.00 27 1007.1
20180819032804 99 269 1.0 2.0 0.00 0.00 0.00 27 1006.9
20180819032304 99 235 0.0 5.0 0.00 0.00 0.00 27 1007.0
20180819031804 99 267 1.0 6.0 0.00 0.00 0.00 27 1006.5
20180819031304 100 281 2.0 8.0 0.00 0.00 0.00 27 1006.8
20180819030804 99 267 1.0 8.0 0.00 0.00 0.00 27 1006.7
20180819030304 100 267 1.0 3.0 0.00 0.00 0.00 27 1006.4
20180819025804 100 272 1.0 3.0 0.00 0.00 0.00 27 1006.6
20180819025305 100 269 1.0 3.0 0.00 0.00 0.00 27 1006.4
20180819024804 100 254 1.0 5.0 0.00 0.00 0.00 27 1006.4
20180819024304 100 262 1.0 3.0 0.00 0.00 0.00 27 1006.6
20180819023805 100 253 2.0 5.0 0.00 0.00 0.00 27 1006.7
20180819023304 100 254 1.0 5.0 0.00 0.00 0.00 27 1006.7
20180819022805 100 233 2.0 3.0 0.00 0.00 0.00 27 1006.9
20180819022304 100 273 1.0 5.0 0.00 0.00 0.00 27 1007.0
20180819021804 101 194 1.0 7.0 0.00 0.00 0.00 27 1006.7
20180819021304 101 268 1.0 5.0 0.00 0.00 0.00 27 1006.9
20180819020804 101 223 1.0 3.0 0.00 0.00 0.00 27 1006.7
20180819020304 101 262 1.0 7.0 0.00 0.00 0.00 27 1006.7
20180819015804 101 229 2.0 6.0 0.00 0.00 0.00 27 1006.5
20180819015304 101 254 0.0 6.0 0.00 0.00 0.00 27 1006.8
20180819014804 101 275 1.0 6.0 0.00 0.00 0.00 27 1006.8
20180819014304 102 258 3.0 6.0 0.00 0.00 0.00 27 1006.7
20180819013804 102 269 1.0 5.0 0.00 0.00 0.00 27 1006.5
20180819013304 102 257 1.0 3.0 0.00 0.00 0.00 27 1006.7
20180819012804 102 257 1.0 3.0 0.00 0.00 0.00 27 1006.7
20180819012304 103 206 1.0 7.0 0.00 0.00 0.00 27 1006.5
20180819011804 103 244 1.0 6.0 0.00 0.00 0.00 26 1006.5
20180819011304 103 266 1.0 5.0 0.00 0.00 0.00 27 1006.5
20180819010805 103 274 1.0 5.0 0.00 0.00 0.00 27 1006.3
20180819010304 103 246 1.0 3.0 0.00 0.00 0.00 26 1006.6
20180819005805 104 271 2.0 5.0 0.00 0.00 0.00 26 1006.7
20180819005305 105 253 1.0 6.0 0.00 0.00 0.00 26 1006.7
20180819004805 105 240 2.0 7.0 0.00 0.00 0.00 25 1006.9
20180819004305 105 293 2.0 3.0 0.00 0.00 0.00 25 1007.0
20180819003806 105 267 0.0 2.0 0.00 0.00 0.00 26 1007.0
20180819003305 105 274 1.0 8.0 0.00 0.00 0.00 25 1007.3
20180819002804 105 271 2.0 7.0 0.00 0.00 0.00 25 1007.4
20180819002304 105 224 1.0 5.0 0.00 0.00 0.00 25 1007.1
20180819001804 105 214 3.0 6.0 0.00 0.00 0.00 25 1007.4
20180819001304 105 276 1.0 6.0 0.00 0.00 0.00 26 1007.4
20180819000805 105 281 2.0 5.0 0.00 0.00 0.00 26 1007.5
20180819000305 105 287 2.0 5.0 0.00 0.00 0.00 26 1007.4
20180818235804 105 249 1.0 9.0 0.00 0.00 0.00 26 1007.4
20180818235304 106 216 1.0 3.0 0.00 0.00 0.00 24 1007.4
20180818234805 106 186 3.0 8.0 0.00 0.00 0.00 25 1007.4
20180818234305 106 259 1.0 8.0 0.00 0.00 0.00 25 1007.5
20180818233805 106 235 1.0 6.0 0.00 0.00 0.00 24 1007.4
20180818233305 106 268 2.0 6.0 0.00 0.00 0.00 25 1007.6
20180818232805 106 219 2.0 3.0 0.00 0.00 0.00 25 1007.6
20180818232305 106 119 2.0 7.0 0.00 0.00 0.00 24 1007.7
20180818231804 106 211 3.0 7.0 0.00 0.00 0.00 25 1007.6
20180818231305 106 227 3.0 7.0 0.00 0.00 0.00 25 1007.7
20180818230804 106 168 3.0 6.0 0.00 0.00 0.00 25 1007.8
20180818230304 106 255 1.0 5.0 0.00 0.00 0.00 25 1007.8
20180818225804 106 252 1.0 5.0 0.00 0.00 0.00 25 1007.9
20180818225304 106 271 2.0 5.0 0.00 0.00 0.00 25 1007.7
20180818224804 106 272 1.0 3.0 0.00 0.00 0.00 25 1008.0
20180818224305 106 264 1.0 3.0 0.00 0.00 0.00 26 1008.0
20180818223804 105 234 1.0 7.0 0.00 0.00 0.00 26 1008.1
20180818223304 106 265 3.0 12.0 0.00 0.00 0.00 25 1008.2
20180818222805 106 142 2.0 5.0 0.00 0.00 0.00 26 1008.1
20180818222305 106 283 2.0 5.0 0.00 0.00 0.00 26 1008.2
20180818221805 106 330 0.0 3.0 0.00 0.00 0.00 25 1008.3
20180818221305 105 294 1.0 5.0 0.00 0.00 0.00 26 1008.5
20180818220805 105 268 3.0 8.0 0.00 0.00 0.00 26 1008.5
20180818220304 106 290 2.0 5.0 0.00 0.00 0.00 25 1008.6
20180818215805 106 199 2.0 8.0 0.00 0.00 0.00 25 1008.6
20180818215305 106 240 2.0 7.0 0.00 0.00 0.00 25 1008.7
20180818214805 106 177 4.0 8.0 0.00 0.00 0.00 26 1008.7
20180818214304 106 234 2.0 7.0 0.00 0.00 0.00 27 1008.9
20180818213805 106 226 2.0 7.0 0.00 0.00 0.00 26 1008.9
20180818213304 105 236 1.0 6.0 0.00 0.00 0.00 26 1009.0
20180818212805 106 302 1.0 5.0 0.00 0.00 0.00 26 1009.0
20180818212304 106 185 0.0 2.0 0.00 0.00 0.00 26 1009.1
20180818211805 106 260 1.0 6.0 0.00 0.00 0.00 27 1009.2
20180818211304 105 232 2.0 6.0 0.00 0.00 0.00 27 1009.0
20180818210805 104 116 2.0 8.0 0.00 0.00 0.00 27 1009.0
20180818210305 105 242 2.0 6.0 0.00 0.00 0.00 28 1009.3
20180818205805 105 220 3.0 7.0 0.00 0.00 0.00 27 1009.3
20180818205305 105 172 0.0 3.0 0.00 0.00 0.00 27 1009.3
20180818204804 105 182 2.0 6.0 0.00 0.00 0.00 27 1009.4
20180818204306 105 253 3.0 9.0 0.00 0.00 0.00 26 1009.5
20180818203804 105 233 2.0 8.0 0.00 0.00 0.00 26 1009.5
20180818203304 106 210 2.0 6.0 0.00 0.00 0.00 27 1009.6
20180818202805 105 163 0.0 2.0 0.00 0.00 0.00 27 1009.7
20180818202304 105 149 1.0 5.0 0.00 0.00 0.00 27 1009.7
20180818201805 105 228 0.0 2.0 0.00 0.00 0.00 27 1010.1
20180818201304 104 259 1.0 3.0 0.00 0.00 0.00 27 1010.2
20180818200804 104 273 2.0 6.0 0.00 0.00 0.00 28 1010.4
20180818200305 104 270 3.0 7.0 0.00 0.00 0.00 28 1010.4
20180818195806 104 165 1.0 3.0 0.00 0.00 0.00 28 1010.5
20180818195304 104 213 1.0 6.0 0.00 0.00 0.00 29 1010.7
20180818194805 103 255 1.0 3.0 0.00 0.00 0.00 29 1010.8
20180818194305 103 192 1.0 3.0 0.00 0.00 0.00 29 1010.8
20180818193805 103 208 2.0 6.0 0.00 0.00 0.00 29 1011.0
20180818193304 103 161 3.0 7.0 0.00 0.00 0.00 30 1011.1
20180818192805 102 161 2.0 7.0 0.00 0.00 0.00 30 1011.1
20180818192304 102 195 1.0 3.0 0.00 0.00 0.00 30 1011.2
20180818191805 102 161 1.0 3.0 0.00 0.00 0.00 31 1011.3
20180818191304 102 283 1.0 7.0 0.00 0.00 0.00 31 1011.3
20180818190805 102 227 2.0 6.0 0.00 0.00 0.00 30 1011.3
20180818190305 101 235 2.0 8.0 0.00 0.00 0.00 31 1011.3
20180818185805 101 232 1.0 6.0 0.00 0.00 0.00 32 1011.5
20180818185305 100 164 2.0 6.0 0.00 0.00 0.00 32 1011.6
20180818184805 101 284 0.0 3.0 0.00 0.00 0.00 32 1011.7
20180818184305 101 302 1.0 3.0 0.00 0.00 0.00 33 1011.8
20180818183804 101 259 0.0 3.0 0.00 0.00 0.00 33 1011.6
20180818183305 101 222 1.0 3.0 0.00 0.00 0.00 33 1011.8
20180818182804 101 176 0.0 3.0 0.00 0.00 0.00 33 1011.9
20180818182304 103 271 1.0 3.0 0.00 0.00 0.00 32 1011.9
20180818181804 103 237 0.0 2.0 0.00 0.00 0.00 32 1011.8
20180818181305 102 118 0.0 1.0 0.00 0.00 0.00 33 1012.0
20180818180805 101 115 0.0 1.0 0.00 0.00 0.00 33 1012.2
20180818180304 100 109 0.0 1.0 0.00 0.00 0.00 34 1012.2
20180818175805 100 83 0.0 1.0 0.00 0.00 0.00 33 1012.1
20180818175305 100 309 0.0 1.0 0.00 0.00 0.00 34 1012.2
20180818174805 99 258 1.0 3.0 0.00 0.00 0.00 35 1012.4
20180818174305 99 298 1.0 5.0 0.00 0.00 0.00 35 1012.4
20180818173805 99 88 1.0 3.0 0.00 0.00 0.00 35 1012.1
20180818173305 99 160 0.0 3.0 0.00 0.00 0.00 36 1012.4
20180818172805 99 229 1.0 5.0 0.00 0.00 0.00 35 1012.4
20180818172305 99 242 0.0 3.0 0.00 0.00 0.00 36 1012.2
20180818171805 98 338 1.0 3.0 0.00 0.00 0.00 37 1012.5
20180818171305 98 183 1.0 3.0 0.00 0.00 0.00 37 1012.5
20180818170805 98 109 0.0 3.0 0.00 0.00 0.00 38 1012.4
20180818170304 98 146 1.0 3.0 0.00 0.00 0.00 37 1012.6
20180818165804 98 178 0.0 3.0 0.00 0.00 0.00 38 1012.6
20180818165304 98 161 1.0 3.0 0.00 0.00 0.00 39 1012.5
20180818164805 97 208 0.0 2.0 0.00 0.00 0.00 39 1012.7
20180818164305 97 273 1.0 3.0 0.00 0.00 0.00 40 1012.6
20180818163805 97 224 2.0 3.0 0.00 0.00 0.00 40 1012.6
20180818163305 96 319 0.0 1.0 0.00 0.00 0.00 40 1012.8
20180818162804 96 272 0.0 2.0 0.00 0.00 0.00 40 1012.5
20180818162305 96 246 2.0 6.0 0.00 0.00 0.00 40 1012.8
20180818161805 95 188 0.0 1.0 0.00 0.00 0.00 41 1012.7
20180818161304 95 311 0.0 2.0 0.00 0.00 0.00 41 1012.8
20180818160805 95 262 0.0 1.0 0.00 0.00 0.00 40 1012.9
20180818160304 96 272 0.0 2.0 0.00 0.00 0.00 40 1012.7
20180818155805 95 205 1.0 3.0 0.00 0.00 0.00 41 1013.0
20180818155306 95 126 0.0 2.0 0.00 0.00 0.00 42 1012.6
20180818154806 94 102 0.0 1.0 0.00 0.00 0.00 43 1012.9
20180818154305 94 117 0.0 1.0 0.00 0.00 0.00 43 1012.8
20180818153805 95 126 0.0 2.0 0.00 0.00 0.00 42 1012.8
20180818153305 95 153 0.0 0.0 0.00 0.00 0.00 42 1013.0
20180818152806 94 162 0.0 1.0 0.00 0.00 0.00 43 1012.8
20180818152305 94 161 0.0 0.0 0.00 0.00 0.00 43 1013.0
20180818151805 94 110 0.0 1.0 0.00 0.00 0.00 44 1012.7
20180818151312 94 211 0.0 0.0 0.00 0.00 0.00 45 1012.7
20180818150805 93 131 0.0 0.0 0.00 0.00 0.00 44 1013.0
20180818150305 93 144 0.0 0.0 0.00 0.00 0.00 44 1012.7
20180818145805 93 145 0.0 0.0 0.00 0.00 0.00 45 1013.0
20180818145305 92 139 0.0 0.0 0.00 0.00 0.00 47 1012.7
20180818144805 91 132 0.0 0.0 0.00 0.00 0.00 48 1012.7
20180818144305 91 129 0.0 1.0 0.00 0.00 0.00 49 1013.0
20180818143805 91 124 0.0 0.0 0.00 0.00 0.00 48 1012.8
20180818143305 91 131 0.0 0.0 0.00 0.00 0.00 50 1012.9
20180818142805 90 131 0.0 0.0 0.00 0.00 0.00 51 1012.6
20180818142305 90 126 0.0 0.0 0.00 0.00 0.00 50 1012.6
20180818141806 90 126 0.0 0.0 0.00 0.00 0.00 51 1012.8
20180818141305 89 126 0.0 0.0 0.00 0.00 0.00 52 1012.6
20180818140805 88 126 0.0 0.0 0.00 0.00 0.00 53 1012.6
20180818140305 87 126 0.0 0.0 0.00 0.00 0.00 55 1012.6
20180818135805 86 125 0.0 1.0 0.00 0.00 0.00 56 1012.5
20180818135305 86 123 0.0 1.0 0.00 0.00 0.00 55 1012.6
20180818134805 87 145 0.0 1.0 0.00 0.00 0.00 54 1012.4
20180818134305 87 356 0.0 0.0 0.00 0.00 0.00 53 1012.4
20180818133805 87 356 0.0 0.0 0.00 0.00 0.00 52 1012.7
20180818133305 87 356 0.0 0.0 0.00 0.00 0.00 51 1012.4
20180818132805 87 356 0.0 0.0 0.00 0.00 0.00 50 1012.3
20180818132305 88 356 0.0 0.0 0.00 0.00 0.00 50 1012.4
20180818131805 88 356 0.0 0.0 0.00 0.00 0.00 49 1012.2
20180818131305 88 35 0.0 0.0 0.00 0.00 0.00 48 1012.2
20180818130805 88 319 0.0 1.0 0.00 0.00 0.00 48 1012.3
20180818130305 88 319 1.0 3.0 0.00 0.00 0.00 49 1012.0
20180818125805 87 325 0.0 0.0 0.00 0.00 0.00 49 1012.0
20180818125305 88 316 0.0 0.0 0.00 0.00 0.00 49 1012.0
20180818124805 88 316 0.0 1.0 0.00 0.00 0.00 49 1011.7
20180818124302 87 349 0.0 0.0 0.00 0.00 0.00 49 1011.7
20180818123802 88 351 0.0 0.0 0.00 0.00 0.00 49 1011.8
20180818123302 88 352 0.0 0.0 0.00 0.00 0.00 48 1011.6
20180818122802 87 53 0.0 0.0 0.00 0.00 0.00 49 1011.5
20180818122302 87 53 0.0 0.0 0.00 0.00 0.00 48 1011.7
20180818121802 87 53 0.0 0.0 0.00 0.00 0.00 49 1011.5
20180818121302 87 19 0.0 0.0 0.00 0.00 0.00 49 1011.4
20180818120802 88 9 0.0 1.0 0.00 0.00 0.00 48 1011.5
20180818120302 88 110 0.0 0.0 0.00 0.00 0.00 48 1011.4
20180818115802 88 88 0.0 0.0 0.00 0.00 0.00 48 1011.3
20180818115302 88 41 0.0 0.0 0.00 0.00 0.00 48 1011.5
20180818114802 87 340 0.0 1.0 0.00 0.00 0.00 49 1011.4
20180818114302 87 335 0.0 0.0 0.00 0.00 0.00 49 1011.2
20180818113802 86 334 0.0 1.0 0.00 0.00 0.00 51 1011.5
20180818113302 86 134 0.0 0.0 0.00 0.00 0.00 52 1011.3
20180818112803 86 134 0.0 0.0 0.00 0.00 0.00 52 1011.2
20180818112302 86 134 0.0 0.0 0.00 0.00 0.00 51 1011.5
20180818111802 86 134 0.0 0.0 0.00 0.00 0.00 51 1011.2
20180818111302 87 134 0.0 0.0 0.00 0.00 0.00 51 1011.2
20180818110803 87 134 0.0 0.0 0.00 0.00 0.00 50 1011.4
20180818105310 90 240 0.0 0.0 0.00 0.00 0.00 44 1011.1
20180818104808 90 240 0.0 0.0 0.00 0.00 0.00 44 1011.1
20180818104302 90 241 0.0 0.0 0.00 0.00 0.00 44 1011.0
20180818103803 90 254 0.0 1.0 0.00 0.00 0.00 44 1011.0
20180818103302 90 280 0.0 0.0 0.00 0.00 0.00 44 1011.0
20180818102802 90 283 0.0 0.0 0.00 0.00 0.00 44 1010.9
20180818102305 89 316 0.0 1.0 0.00 0.00 0.00 44 1010.9
20180818101802 89 280 0.0 0.0 0.00 0.00 0.00 45 1010.8
20180818101302 88 246 0.0 0.0 0.00 0.00 0.00 46 1011.0
20180818100802 88 246 0.0 0.0 0.00 0.00 0.00 47 1010.9
20180818100303 88 246 0.0 0.0 0.00 0.00 0.00 46 1010.9
20180818095803 89 246 0.0 0.0 0.00 0.00 0.00 46 1011.1
20180818095305 89 246 0.0 0.0 0.00 0.00 0.00 46 1010.9
20180818094802 89 246 0.0 0.0 0.00 0.00 0.00 46 1010.8
20180818094302 89 246 0.0 0.0 0.00 0.00 0.00 46 1011.0
20180818093802 89 246 0.0 0.0 0.00 0.00 0.00 46 1010.8
20180818093302 89 246 0.0 0.0 0.00 0.00 0.00 46 1010.8
20180818092802 89 246 0.0 0.0 0.00 0.00 0.00 46 1011.1
20180818092302 88 246 0.0 0.0 0.00 0.00 0.00 47 1010.8
20180818091802 88 246 0.0 0.0 0.00 0.00 0.00 48 1010.9
20180818091303 88 246 0.0 0.0 0.00 0.00 0.00 47 1011.0
20180818090802 88 246 0.0 0.0 0.00 0.00 0.00 48 1010.9
20180818090302 88 246 0.0 0.0 0.00 0.00 0.00 47 1011.0
20180818085802 88 246 0.0 0.0 0.00 0.00 0.00 48 1010.9
20180818085302 88 246 0.0 0.0 0.00 0.00 0.00 47 1010.9
20180818084802 88 246 0.0 0.0 0.00 0.00 0.00 46 1011.2
20180818084303 89 246 0.0 0.0 0.00 0.00 0.00 47 1010.9
20180818083802 89 246 0.0 0.0 0.00 0.00 0.00 46 1010.9
20180818083302 89 246 0.0 0.0 0.00 0.00 0.00 46 1011.2
20180818082802 89 246 0.0 0.0 0.00 0.00 0.00 46 1011.1
20180818082305 90 246 0.0 0.0 0.00 0.00 0.00 44 1011.3
20180818081803 90 246 0.0 0.0 0.00 0.00 0.00 43 1011.1
20180818081303 91 246 0.0 0.0 0.00 0.00 0.00 43 1011.1
20180818080802 90 246 0.0 9.0 0.00 0.00 0.00 43 1011.1
20180818080302 90 246 0.0 0.0 0.00 0.00 0.00 44 1011.0
20180818075802 90 246 0.0 0.0 0.00 0.00 0.00 44 1011.4
20180818075305 91 246 0.0 0.0 0.00 0.00 0.00 43 1011.2